Tallevast, FL

6:56 AM EDT on July 26, 2016 (GMT -0400)
Sarasota-bradenton

Weather History for KSRQ - January, 2008

Change the Weather History Date:

Sunday, January 13, 2008

  Actual Average Record
Temperature  
Mean Temperature 68 °F 61 °F  
Max Temperature 77 °F 71 °F 85 °F (1974)
Min Temperature 59 °F 52 °F 23 °F (1981)
Degree Days  
Heating Degree Days 0 5  
Month to date heating degree days 53 74  
Since 1 July heating degree days 107 229  
Cooling Degree Days 3 2  
Month to date cooling degree days 29 26  
Year to date cooling degree days 29 26  
Growing Degree Days 20 (Base 50)    
Moisture  
Dew Point 66 °F    
Average Humidity 89    
Maximum Humidity 97    
Minimum Humidity 67    
Precipitation  
Precipitation 0.01 in 0.08 in 1.17 in (1961)
Month to date precipitation 0.08 1.43  
Year to date precipitation 0.08 1.43  
Sea Level Pressure  
Sea Level Pressure 29.96 in    
Wind  
Wind Speed 7 mph (SSW)    
Max Wind Speed 16 mph    
Max Gust Speed 18 mph    
Visibility 5 miles    
Events Fog , Rain , Thunderstorm    
T = Trace of Precipitation, MM = Missing Value Source: NWS Daily Summary

Daily Weather History Graph

Daily Weather History Graph

Search for Another Location

Airport or City:

Trip Planner

Search our weather history database for the weather conditions in past years. The results will help you decide how hot, cold, wet, or windy it might be!

Date:

Astronomy

Jan. 13, 2008 Rise Set
Actual Time 7:21 AM EST 5:55 PM EST
Civil Twilight 6:56 AM EST 6:21 PM EST
Nautical Twilight 6:27 AM EST 6:49 PM EST
Astronomical Twilight 5:59 AM EST 7:18 PM EST
Moon 10:38 AM EST (1/13) 11:08 PM EST (1/13)
Length of Visible Light 11h 24m
Length of Day
10h 34m
Waxing Crescent, 27% of the Moon is Illuminated
Jan 13
Waxing Crescent
Jan 15
First Quarter
Jan 22
Full
Jan 30
Last Quarter
Feb 6
New

Hourly Weather History & Observations

Time (EST) Temp. Dew Point Humidity Pressure Visibility Wind Dir Wind Speed Gust Speed Precip Events Conditions
12:12 AM 71.6 °F 68.0 °F 88% 29.93 in 6.0 mi South 11.5 mph - N/A   Overcast
12:37 AM 71.6 °F 68.0 °F 88% 29.94 in 1.8 mi South 8.1 mph - N/A   Overcast
12:48 AM 69.8 °F 68.0 °F 94% 29.94 in 0.5 mi South 9.2 mph - N/A   Mist
12:53 AM 70.0 °F 68.0 °F 93% 29.93 in 0.5 mi South 9.2 mph - N/A   Mist
1:53 AM 70.0 °F 68.0 °F 93% 29.93 in 0.5 mi South 9.2 mph - N/A   Mist
2:26 AM 69.8 °F 68.0 °F 94% 29.92 in 1.0 mi South 6.9 mph - N/A   Overcast
2:33 AM 69.8 °F 68.0 °F 94% 29.93 in 0.8 mi South 6.9 mph - N/A   Overcast
2:53 AM 70.0 °F 68.0 °F 93% 29.92 in 0.5 mi South 8.1 mph - N/A   Mist
3:53 AM 69.1 °F 68.0 °F 96% 29.93 in 0.8 mi SSW 8.1 mph - N/A   Mist
4:28 AM 69.8 °F 68.0 °F 94% 29.93 in 1.5 mi SSW 5.8 mph - N/A   Overcast
4:44 AM 69.8 °F 68.0 °F 94% 29.93 in 0.5 mi South 5.8 mph - N/A   Mist
4:53 AM 69.1 °F 68.0 °F 96% 29.93 in 0.2 mi South 6.9 mph - N/A   Mist
5:40 AM 69.8 °F 68.0 °F 94% 29.94 in 1.2 mi South 5.8 mph - N/A   Overcast
5:53 AM 70.0 °F 68.0 °F 93% 29.94 in 0.5 mi South 8.1 mph - N/A   Overcast
6:53 AM 69.1 °F 66.9 °F 93% 29.96 in 0.2 mi South 6.9 mph - N/A   Mist
7:41 AM 69.8 °F 68.0 °F 94% 29.97 in 0.2 mi South 6.9 mph - N/A Fog Fog
7:53 AM 69.1 °F 68.0 °F 96% 29.97 in 0.2 mi South 6.9 mph - N/A Fog Fog
8:02 AM 69.8 °F 68.0 °F 94% 29.97 in 0.2 mi South 9.2 mph - N/A Fog Fog
8:53 AM 69.1 °F 68.0 °F 96% 29.99 in 0.2 mi South 6.9 mph - N/A Fog Fog
9:08 AM 69.8 °F 68.0 °F 94% 29.98 in 1.2 mi South 8.1 mph - N/A   Overcast
9:20 AM 69.8 °F 68.0 °F 94% 29.98 in 2.0 mi SSE 9.2 mph - N/A   Overcast
9:34 AM 71.6 °F 69.8 °F 94% 29.98 in 5.0 mi SSE 10.4 mph - N/A   Overcast
9:53 AM 72.0 °F 70.0 °F 93% 29.98 in 9.0 mi South 11.5 mph - N/A   Scattered Clouds
10:53 AM 75.0 °F 68.0 °F 79% 29.97 in 10.0 mi South 15.0 mph - N/A   Clear
11:53 AM 77.0 °F 68.0 °F 74% 29.96 in 10.0 mi SSW 12.7 mph - N/A   Scattered Clouds
12:53 PM 73.9 °F 66.9 °F 79% 29.96 in 10.0 mi SSW 9.2 mph - N/A   Clear
1:53 PM 73.0 °F 68.0 °F 84% 29.94 in 10.0 mi SSW 8.1 mph - N/A   Scattered Clouds
2:45 PM 71.6 °F 68.0 °F 88% 29.93 in 9.0 mi South 8.1 mph - N/A   Partly Cloudy
2:53 PM 72.0 °F 68.0 °F 87% 29.93 in 10.0 mi SSW 8.1 mph - N/A   Partly Cloudy
3:37 PM 71.6 °F 68.0 °F 88% 29.93 in 7.0 mi SSW 5.8 mph - N/A   Mostly Cloudy
3:53 PM 72.0 °F 68.0 °F 87% 29.94 in 9.0 mi SSW 6.9 mph - N/A   Mostly Cloudy
4:28 PM 71.6 °F 69.8 °F 94% 29.94 in 6.0 mi SSW 5.8 mph - N/A Thunderstorm Overcast
4:53 PM 69.1 °F 64.9 °F 87% 29.95 in 10.0 mi NNW 6.9 mph - 0.00 in Rain Light Rain
5:02 PM 69.8 °F 64.4 °F 83% 29.95 in 7.0 mi North 5.8 mph - 0.01 in Rain Light Rain
5:53 PM 69.1 °F 66.0 °F 90% 29.97 in 10.0 mi Calm Calm - 0.01 in   Overcast
6:53 PM 68.0 °F 64.0 °F 87% 29.98 in 10.0 mi Calm Calm - N/A   Clear
7:53 PM 66.9 °F 64.0 °F 90% 29.99 in 10.0 mi Calm Calm - N/A   Clear
8:25 PM 66.2 °F 62.6 °F 88% 30.02 in 7.0 mi NNW 6.9 mph - N/A   Mostly Cloudy
8:34 PM 66.2 °F 62.6 °F 88% 30.03 in 9.0 mi NNW 5.8 mph - N/A   Mostly Cloudy
8:48 PM 66.2 °F 62.6 °F 88% 30.03 in 10.0 mi NNW 9.2 mph - N/A   Mostly Cloudy
8:53 PM 66.0 °F 62.1 °F 87% 30.03 in 10.0 mi North 5.8 mph - N/A   Mostly Cloudy
9:02 PM 64.4 °F 60.8 °F 88% 30.03 in 10.0 mi North 9.2 mph - N/A   Mostly Cloudy
9:53 PM 63.0 °F 52.0 °F 67% 30.04 in 10.0 mi North 5.8 mph - N/A   Mostly Cloudy
10:53 PM 62.1 °F 51.1 °F 67% 30.04 in 10.0 mi Calm Calm - N/A   Overcast
11:53 PM 59.0 °F 52.0 °F 78% 30.04 in 10.0 mi NW 6.9 mph - N/A   Mostly Cloudy